Retour au catalogue

BREEZE-M DEB

ActifUNKNOWN
NORAD 34239·DEBRIS·🇷🇺 Russia

Lancé Feb 28, 2006 depuis Baikonur Cosmodrome

Loading…

Prochains Passages (prochaines 24 heures)

TLE

FraisSource: Space-Track

Époque: Sep 12, 2026, 21:42 UTC

1 34239U 06006BE  26255.90442269  .00013727  00000-0  23826-1 0  9991
2 34239  50.3255  90.7885 1400065 248.2108  96.4227 11.53825989 50254

Suivez BREEZE-M DEB en temps réel avec AllMySat

Download on the App Store